Pierre, SD

2:53 PM CST on November 21, 2019 (GMT -0600)
Pierre Regional

Weather History for KPIR - June, 2019

Change the Weather History Date:

Sunday, June 9, 2019

  Actual Average Record
Temperature  
Mean Temperature 60 °F 65 °F  
Max Temperature 69 °F 77 °F 103 °F (2017)
Min Temperature 50 °F 54 °F 39 °F (1989)
Degree Days  
Heating Degree Days 5    
Month to date heating degree days 17  
Since 1 June heating degree days 17  
Since 1 July heating degree days 8143  
Cooling Degree Days 0    
Month to date cooling degree days 39  
Year to date cooling degree days 50  
Since 1 June cooling degree days 39  
Growing Degree Days 10 (Base 50)    
Moisture  
Dew Point 43 °F    
Average Humidity 60    
Maximum Humidity 83    
Minimum Humidity 36    
Precipitation  
Precipitation 0.01 in 0.13 in 3.33 in (1971)
Month to date precipitation 0.01 1.19  
Year to date precipitation 13.86 8.39  
Snow  
Snow 0.00 in 0.00 in 0.00 in ()
Month to date snowfall 0.0 0.0  
Since 1 July snowfall 66.3 31.9  
Snow Depth 0.00 in    
Sea Level Pressure  
Sea Level Pressure 30.25 in    
Wind  
Wind Speed 13 mph (WNW)    
Max Wind Speed 23 mph    
Max Gust Speed 31 mph    
Visibility 10 miles    
Events      
T = Trace of Precipitation, MM = Missing Value Source: NWS Daily Summary

Daily Weather History Graph

Daily Weather History Graph

Search for Another Location

Airport or City:

Astronomy

Jun. 09, 2019 Rise Set
Actual Time 5:56 AM CDT 9:24 PM CDT
Civil Twilight 5:20 AM CDT 10:00 PM CDT
Nautical Twilight 4:32 AM CDT 10:48 PM CDT
Astronomical Twilight 3:32 AM CDT 11:49 PM CDT
Moon 12:46 PM CDT (6/9) 1:57 AM CDT (6/9)
Length of Visible Light 16h 39m
Length of Day
15h 27m
Waxing Crescent, 44% of the Moon is Illuminated
Jun 9
Waxing Crescent
Jun 10
First Quarter
Jun 17
Full
Jun 25
Last Quarter
Jul 2
New

Hourly Weather History & Observations

Time (CDT) Temp. Dew Point Humidity Pressure Visibility Wind Dir Wind Speed Gust Speed Precip Events Conditions
12:53 AM 57.0 °F 46.0 °F 67% 30.13 in 10.0 mi NNW 11.5 mph - N/A   Overcast
1:53 AM 55.0 °F 43.0 °F 64% 30.14 in 10.0 mi NNW 10.4 mph - N/A   Mostly Cloudy
2:53 AM 54.0 °F 43.0 °F 66% 30.17 in 10.0 mi NW 12.7 mph - 0.00 in   Overcast
3:53 AM 53.1 °F 44.1 °F 71% 30.20 in 10.0 mi WNW 13.8 mph - N/A   Overcast
4:53 AM 51.1 °F 46.0 °F 83% 30.18 in 10.0 mi WNW 6.9 mph - 0.01 in   Overcast
5:53 AM 50.0 °F 45.0 °F 83% 30.22 in 10.0 mi West 8.1 mph - 0.00 in   Mostly Cloudy
6:53 AM 51.1 °F 44.1 °F 77% 30.23 in 10.0 mi WNW 13.8 mph - N/A   Mostly Cloudy
7:53 AM 52.0 °F 45.0 °F 77% 30.26 in 10.0 mi NW 15.0 mph 23.0 mph N/A   Mostly Cloudy
8:53 AM 55.0 °F 44.1 °F 67% 30.26 in 10.0 mi NW 17.3 mph - N/A   Clear
9:53 AM 59.0 °F 45.0 °F 60% 30.27 in 10.0 mi NW 16.1 mph 25.3 mph N/A   Clear
10:53 AM 62.1 °F 44.1 °F 52% 30.28 in 10.0 mi WNW 16.1 mph 26.5 mph N/A   Clear
11:53 AM 63.0 °F 42.1 °F 46% 30.28 in 10.0 mi NW 20.7 mph 27.6 mph N/A   Clear
12:53 PM 66.0 °F 41.0 °F 40% 30.27 in 10.0 mi NW 20.7 mph 28.8 mph N/A   Clear
1:53 PM 66.9 °F 43.0 °F 42% 30.26 in 10.0 mi NNW 20.7 mph 29.9 mph N/A   Clear
2:53 PM 68.0 °F 41.0 °F 37% 30.26 in 10.0 mi NW 19.6 mph 29.9 mph N/A   Clear
3:53 PM 69.1 °F 41.0 °F 36% 30.27 in 10.0 mi WNW 17.3 mph 25.3 mph N/A   Clear
4:53 PM 64.0 °F 41.0 °F 43% 30.30 in 10.0 mi West 13.8 mph - N/A   Partly Cloudy
5:53 PM 68.0 °F 41.0 °F 37% 30.28 in 10.0 mi WNW 12.7 mph - N/A   Clear
6:53 PM 68.0 °F 41.0 °F 37% 30.27 in 10.0 mi WNW 11.5 mph - N/A   Clear
7:53 PM 66.0 °F 42.1 °F 42% 30.27 in 10.0 mi WNW 6.9 mph - N/A   Clear
8:53 PM 62.1 °F 43.0 °F 50% 30.28 in 10.0 mi West 5.8 mph - N/A   Scattered Clouds
9:53 PM 60.1 °F 41.0 °F 49% 30.28 in 10.0 mi West 6.9 mph - N/A   Clear
10:53 PM 57.0 °F 42.1 °F 57% 30.30 in 10.0 mi West 6.9 mph - N/A   Clear
11:53 PM 53.1 °F 42.1 °F 66% 30.30 in 10.0 mi WSW 5.8 mph - N/A   Clear